VK2OU Weather Reports


Display with metric or nautical units.
time (UTC)temp
F
wind
direction
speed
MPH
gust
MPH
rain 1hr
in
rain 24hr
in
rain mn
in
humidity
%
barometer
mb
20260502215034 54 0.0 0.0 0.00 0.00 0.00 99
20260502214530 54 247 1.0 3.0 0.00 0.00 0.00 91
20260502214028 53 0.0 0.0 0.00 0.00 0.00 99
20260502213523 54 217 0.0 1.0 0.00 0.00 0.00 92
20260502213034 53 0.0 0.0 0.00 0.00 0.00 99
20260502212531 54 179 0.0 2.0 0.00 0.00 0.00 93
20260502212025 53 0.0 0.0 0.00 0.00 0.00 99
20260502211523 53 157 0.0 2.0 0.00 0.00 0.00 94
20260502211051 53 0.0 0.0 0.00 0.00 0.00 99
20260502210552 53 148 0.0 2.0 0.00 0.00 0.00 95
20260502210039 52 0.0 0.0 0.00 0.00 0.00 99
20260502205523 53 228 1.0 2.0 0.00 0.00 0.00 95
20260502205027 52 0.0 0.0 0.00 0.00 0.00 99
20260502204531 52 217 0.0 2.0 0.00 0.00 0.00 94
20260502203524 53 210 0.0 1.0 0.00 0.00 0.00 94
20260502202531 53 0.0 0.0 0.00 0.00 0.00 94
20260502201535 53 0.0 0.0 0.00 0.00 0.00 99
20260502201527 53 170 0.0 2.0 0.00 0.00 0.00 94
20260502200530 53 215 0.0 1.0 0.00 0.00 0.00 93
20260502200527 53 0.0 0.0 0.00 0.00 0.00 99
20260502195532 53 0.0 0.0 0.00 0.00 0.00 99
20260502195523 53 195 0.0 1.0 0.00 0.00 0.00 93
20260502194550 53 64 0.0 3.0 0.00 0.00 0.00 93
20260502194542 53 0.0 0.0 0.00 0.00 0.00 99
20260502193529 53 0.0 0.0 0.00 0.00 0.00 99
20260502193525 53 203 0.0 1.0 0.00 0.00 0.00 93
20260502192537 53 0.0 0.0 0.00 0.00 0.00 99
20260502192531 53 208 0.0 1.0 0.00 0.00 0.00 92
20260502191526 53 0.0 0.0 0.00 0.00 0.00 99
20260502191524 53 0.0 0.0 0.00 0.00 0.00 92
20260502190534 53 0.0 0.0 0.00 0.00 0.00 99
20260502185524 53 0.0 0.0 0.00 0.00 0.00 99
20260502184533 53 0.0 0.0 0.00 0.00 0.00 99
20260502183522 53 232 0.0 1.0 0.00 0.00 0.00 91
20260502182531 54 186 0.0 1.0 0.00 0.00 0.00 90
20260502182528 54 0.0 0.0 0.00 0.00 0.00 99
20260502181537 54 0.0 0.0 0.00 0.00 0.00 99
20260502181522 54 241 0.0 1.0 0.00 0.00 0.00 90
20260502180530 54 279 1.0 5.0 0.00 0.00 0.00 89
20260502180526 54 0.0 0.0 0.00 0.00 0.00 99
20260502163525 55 0.0 0.0 0.00 0.00 0.00 99
20260502163522 55 218 0.0 1.0 0.00 0.00 0.00 87
20260502162530 56 177 0.0 1.0 0.00 0.00 0.00 86
20260502161522 56 251 1.0 3.0 0.00 0.00 0.00 87
20260502161520 55 0.0 0.0 0.00 0.00 0.00 99
20260502160531 56 254 0.0 2.0 0.00 0.00 0.00 87
20260502151530 57 0.0 0.0 0.00 0.00 0.00 99
20260502151524 57 54 1.0 5.0 0.00 0.00 0.00 90
20260502150555 57 46 2.0 6.0 0.00 0.00 0.00 90
20260502150544 57 0.0 0.0 0.00 0.00 0.00 99
20260502130530 58 42 2.0 5.0 0.00 0.00 0.00 91
20260502130526 58 0.0 0.0 0.00 0.00 0.00 99
20260502123527 58 0.0 0.0 0.00 0.00 0.00 99
20260502123523 58 35 2.0 7.0 0.00 0.00 0.00 90
20260502122534 58 0.0 0.0 0.00 0.00 0.00 99
20260502122531 58 42 2.0 5.0 0.00 0.00 0.00 90
20260502121527 58 0.0 0.0 0.00 0.00 0.00 99
20260502120532 58 0.0 0.0 0.00 0.00 0.00 99
20260502115543 58 323 1.0 3.0 0.00 0.00 0.00 89
20260502115541 58 0.0 0.0 0.00 0.00 0.00 99
20260502113524 58 353 2.0 5.0 0.00 0.00 0.00 88
20260502112531 58 356 2.0 7.0 0.00 0.00 0.00 88
20260502111523 58 296 1.0 3.0 0.00 0.00 0.00 88
20260502110532 58 204 0.0 1.0 0.00 0.00 0.00 87
20260502105523 58 199 1.0 2.0 0.00 0.00 0.00 86
20260502104531 59 215 1.0 1.0 0.00 0.00 0.00 84
20260502104024 59 0.0 0.0 0.00 0.00 0.00 99
20260502103525 58 63 1.0 3.0 0.00 0.00 0.00 84
20260502103032 59 0.0 0.0 0.00 0.00 0.00 99
20260502102532 59 204 0.0 3.0 0.00 0.00 0.00 83
20260502101543 59 134 0.0 2.0 0.00 0.00 0.00 81
20260502100530 59 196 1.0 3.0 0.00 0.00 0.00 81
20260502091525 59 262 1.0 3.0 0.00 0.00 0.00 80
20260502091021 60 0.0 0.0 0.00 0.00 0.00 99
20260502090533 59 223 0.0 2.0 0.00 0.00 0.00 79
20260502071524 64 23 3.0 8.0 0.00 0.00 0.00 68
20260502070531 64 9 2.0 5.0 0.00 0.00 0.00 67
20260502065523 64 26 3.0 8.0 0.00 0.00 0.00 66
20260502064105 65 0.0 0.0 0.00 0.00 0.00 99
20260502063528 65 27 3.0 6.0 0.00 0.00 0.00 66
20260502062612 65 24 3.0 8.0 0.00 0.00 0.00 65
20260502061523 66 34 4.0 8.0 0.00 0.00 0.00 65
20260502061054 66 0.0 0.0 0.00 0.00 0.00 99
20260502060532 66 11 2.0 8.0 0.00 0.00 0.00 65
20260502060043 67 0.0 0.0 0.00 0.00 0.00 99
20260502055523 67 2 3.0 7.0 0.00 0.00 0.00 65
20260502055051 67 0.0 0.0 0.00 0.00 0.00 99
20260502054552 67 15 2.0 6.0 0.00 0.00 0.00 65
20260502054020 67 0.0 0.0 0.00 0.00 0.00 99
20260502053544 67 330 2.0 3.0 0.00 0.00 0.00 66
20260502053030 68 0.0 0.0 0.00 0.00 0.00 99
20260502052553 67 18 2.0 6.0 0.00 0.00 0.00 66
20260502052036 68 0.0 0.0 0.00 0.00 0.00 99
20260502051524 67 18 2.0 6.0 0.00 0.00 0.00 65
20260502051025 69 0.0 0.0 0.00 0.00 0.00 99
20260502050553 68 8 2.0 7.0 0.00 0.00 0.00 63
20260502050034 69 0.0 0.0 0.00 0.00 0.00 99
20260502045524 68 256 1.0 3.0 0.00 0.00 0.00 63
20260502045050 69 0.0 0.0 0.00 0.00 0.00 99
20260502044551 68 276 2.0 5.0 0.00 0.00 0.00 62
20260502044030 70 0.0 0.0 0.00 0.00 0.00 99
20260502043548 68 263 1.0 3.0 0.00 0.00 0.00 62
20260502043020 70 0.0 0.0 0.00 0.00 0.00 99
20260502042531 69 37 2.0 6.0 0.00 0.00 0.00 62
20260502042334 70 0.0 0.0 0.00 0.00 0.00 99
20260502041523 69 38 2.0 6.0 0.00 0.00 0.00 62
20260502041035 70 0.0 0.0 0.00 0.00 0.00 99
20260502040531 68 15 2.0 6.0 0.00 0.00 0.00 65
20260502040043 69 0.0 0.0 0.00 0.00 0.00 99
20260502035525 67 317 2.0 6.0 0.00 0.00 0.00 65
20260502035111 69 0.0 0.0 0.00 0.00 0.00 99
20260502034533 67 300 2.0 6.0 0.00 0.00 0.00 65
20260502034027 0 0.0 0.0 0.00 0.00 0.00
20260502033524 68 320 3.0 6.0 0.00 0.00 0.00 62
20260502033029 70 0.0 0.0 0.00 0.00 0.00 99
20260502032532 68 294 3.0 7.0 0.00 0.00 0.00 62
20260502032038 70 0.0 0.0 0.00 0.00 0.00 99
20260502031544 68 9 2.0 7.0 0.00 0.00 0.00 64
20260502031027 69 0.0 0.0 0.00 0.00 0.00 99
20260502030531 68 315 2.0 6.0 0.00 0.00 0.00 62
20260502030035 71 0.0 0.0 0.00 0.00 0.00 99
20260502025523 68 316 3.0 5.0 0.00 0.00 0.00 62
20260502025026 70 0.0 0.0 0.00 0.00 0.00 99
20260502024532 67 356 2.0 6.0 0.00 0.00 0.00 67
20260502024032 68 0.0 0.0 0.00 0.00 0.00 99
20260502023525 66 323 2.0 5.0 0.00 0.00 0.00 69
20260502023021 68 0.0 0.0 0.00 0.00 0.00 99
20260502022552 66 33 3.0 6.0 0.00 0.00 0.00 68
20260502022047 70 0.0 0.0 0.00 0.00 0.00 99
20260502021523 67 307 2.0 5.0 0.00 0.00 0.00 66
20260502021209 72 0.0 0.0 0.00 0.00 0.00 99
20260502020531 67 276 1.0 5.0 0.00 0.00 0.00 66
20260502020122 72 0.0 0.0 0.00 0.00 0.00 99
20260502015523 67 267 2.0 6.0 0.00 0.00 0.00 68
20260502015131 70 0.0 0.0 0.00 0.00 0.00 99
20260502014613 65 339 3.0 8.0 0.00 0.00 0.00 71
20260502014349 68 0.0 0.0 0.00 0.00 0.00 99
20260502013546 65 335 3.0 7.0 0.00 0.00 0.00 72
20260502012532 65 340 2.0 6.0 0.00 0.00 0.00 72
20260502011523 65 346 3.0 7.0 0.00 0.00 0.00 72
20260502010532 64 298 3.0 6.0 0.00 0.00 0.00 73
20260502005523 63 359 2.0 6.0 0.00 0.00 0.00 76
20260502004531 64 301 3.0 8.0 0.00 0.00 0.00 74
20260502003523 62 304 2.0 6.0 0.00 0.00 0.00 78
20260502003519 64 0.0 0.0 0.00 0.00 0.00 99
20260502002531 62 293 2.0 5.0 0.00 0.00 0.00 79
20260502002528 62 0.0 0.0 0.00 0.00 0.00 99
20260502001553 62 0.0 0.0 0.00 0.00 0.00 99
20260502001523 61 8 3.0 7.0 0.00 0.00 0.00 80
20260502000622 62 0.0 0.0 0.00 0.00 0.00 99
20260502000531 60 299 2.0 5.0 0.00 0.00 0.00 81
20260501233529 62 0.0 0.0 0.00 0.00 0.00 99
20260501233523 60 292 2.0 6.0 0.00 0.00 0.00 82
20260501232614 61 0.0 0.0 0.00 0.00 0.00 99
20260501232532 60 292 2.0 5.0 0.00 0.00 0.00 81
20260501231547 61 0.0 0.0 0.00 0.00 0.00 99
20260501231544 59 269 1.0 3.0 0.00 0.00 0.00 83
20260501230534 59 0.0 0.0 0.00 0.00 0.00 99
20260501230532 59 261 1.0 2.0 0.00 0.00 0.00 83
20260501225543 59 0.0 0.0 0.00 0.00 0.00 99
20260501225525 58 231 0.0 1.0 0.00 0.00 0.00 84
20260501224531 59 0.0 0.0 0.00 0.00 0.00 99
20260501223558 60 0.0 0.0 0.00 0.00 0.00 99
20260501223525 56 227 1.0 2.0 0.00 0.00 0.00 89
20260501222531 56 141 1.0 2.0 0.00 0.00 0.00 89
20260501222529 58 0.0 0.0 0.00 0.00 0.00 99
20260501221537 58 0.0 0.0 0.00 0.00 0.00 99
20260501221524 55 145 1.0 2.0 0.00 0.00 0.00 96
20260501220552 54 102 1.0 2.0 0.00 0.00 0.00 98
20260501220547 56 0.0 0.0 0.00 0.00 0.00 99
20260501215524 54 160 0.0 2.0 0.00 0.00 0.00 98